Greenville, MS

5:07 PM CDT on May 24, 2018 (GMT -0500)
Mid Delta Regional

Weather History for KGLH - February, 2014

Change the Weather History Date:

Sunday, February 2, 2014

  Actual Average Record
Temperature  
Mean Temperature 49 °F 43 °F  
Max Temperature 63 °F 54 °F 78 °F (1962)
Min Temperature 34 °F 33 °F -2 °F (1951)
Degree Days  
Heating Degree Days 16 22  
Month to date heating degree days 20 44  
Since 1 July heating degree days 2016 1833  
Cooling Degree Days 0 0  
Month to date cooling degree days 0 0  
Year to date cooling degree days 0 1  
Moisture  
Dew Point 37 °F    
Average Humidity 87    
Maximum Humidity 96    
Minimum Humidity 78    
Precipitation  
Precipitation 1.47 in 0.21 in 1.95 in (1975)
Month to date precipitation 1.47 0.43  
Year to date precipitation 2.31 5.40  
Sea Level Pressure  
Sea Level Pressure 30.03 in    
Wind  
Wind Speed 16 mph (North)    
Max Wind Speed 29 mph    
Max Gust Speed 35 mph    
Visibility 4 miles    
Events Rain , Snow , Thunderstorm    
T = Trace of Precipitation, MM = Missing Value Source: NWS Daily Summary

Daily Weather History Graph

Daily Weather History Graph

Search for Another Location

Airport or City:

Astronomy

Feb. 02, 2014 Rise Set
Actual Time 6:59 AM CST 5:36 PM CST
Civil Twilight 6:33 AM CST 6:02 PM CST
Nautical Twilight 6:03 AM CST 6:32 PM CST
Astronomical Twilight 5:34 AM CST 7:01 PM CST
Moon 8:37 AM CST (2/2) 9:07 PM CST (2/2)
Length of Visible Light 11h 29m
Length of Day
10h 37m
Waxing Crescent, 11% of the Moon is Illuminated
Feb 2
Waxing Crescent
Feb 6
First Quarter
Feb 14
Full
Feb 22
Last Quarter
Mar 1
New

Hourly Weather History & Observations

Time (CST) Temp. Windchill Dew Point Humidity Pressure Visibility Wind Dir Wind Speed Gust Speed Precip Events Conditions
12:53 AM 61.0 °F - 55.0 °F 81% 29.94 in 10.0 mi South 12.7 mph - N/A   Scattered Clouds
1:23 AM 60.8 °F - 55.4 °F 82% 29.93 in 10.0 mi South 9.2 mph - N/A   Mostly Cloudy
1:30 AM 59.0 °F - 53.6 °F 82% 29.93 in 9.0 mi South 9.2 mph - N/A   Scattered Clouds
1:53 AM 60.1 °F - 55.0 °F 83% 29.94 in 9.0 mi South 10.4 mph - N/A   Mostly Cloudy
2:27 AM 60.8 °F - 55.4 °F 82% 29.92 in 9.0 mi SSW 9.2 mph - N/A   Overcast
2:53 AM 60.1 °F - 55.9 °F 86% 29.94 in 8.0 mi South 8.1 mph - N/A   Overcast
3:53 AM 62.1 °F - 57.9 °F 86% 29.98 in 7.0 mi WNW 9.2 mph - N/A   Overcast
4:40 AM 53.6 °F - 51.8 °F 94% 29.97 in 4.0 mi North 15.0 mph 20.7 mph 0.00 in Rain Light Rain
4:47 AM 51.8 °F - 50.0 °F 94% 29.97 in 2.5 mi North 16.1 mph - 0.00 in Rain Light Rain
4:48 AM 51.1 °F - 48.9 °F 92% 30.00 in 2.5 mi North 13.8 mph - 0.00 in Rain Light Rain
5:04 AM 48.2 °F - 46.4 °F 93% 29.99 in 1.8 mi North 16.1 mph 20.7 mph 0.00 in   Overcast
5:14 AM 46.4 °F 39.2 °F 44.6 °F 93% 30.00 in 2.5 mi North 18.4 mph - 0.00 in   Overcast
5:24 AM 46.4 °F 39.5 °F 44.6 °F 93% 30.01 in 3.0 mi North 17.3 mph 25.3 mph 0.01 in Rain Light Rain
5:36 AM 46.4 °F 39.0 °F 44.6 °F 93% 30.01 in 2.5 mi North 19.6 mph - 0.01 in   Overcast
5:53 AM 45.0 °F 37.6 °F 43.0 °F 93% 30.02 in 3.0 mi North 17.3 mph - 0.03 in Rain Light Rain
6:53 AM 44.1 °F 36.8 °F 42.1 °F 93% 30.04 in 5.0 mi NNE 16.1 mph - 0.01 in Rain Rain
7:00 AM 44.6 °F 37.4 °F 42.8 °F 93% 30.02 in 2.5 mi NNE 16.1 mph - 0.05 in Rain Heavy Rain
7:03 AM 44.6 °F 37.4 °F 42.8 °F 93% 30.02 in 1.8 mi NNE 16.1 mph 23.0 mph 0.10 in Rain Heavy Rain
7:11 AM 44.6 °F 38.1 °F 42.8 °F 93% 30.03 in 2.0 mi NNE 13.8 mph - 0.13 in Rain Heavy Rain
7:20 AM 44.6 °F 37.8 °F 42.8 °F 93% 30.05 in 4.0 mi North 15.0 mph - 0.15 in Rain Rain
7:45 AM 42.8 °F 35.4 °F 41.0 °F 93% 30.03 in 2.5 mi NE 15.0 mph 23.0 mph 0.25 in Rain Heavy Rain
7:53 AM 43.0 °F 34.2 °F 41.0 °F 93% 30.07 in 4.0 mi NE 20.7 mph 26.5 mph 0.26 in Rain Light Rain
8:53 AM 41.0 °F 33.9 °F 39.0 °F 93% 30.09 in 6.0 mi NNE 12.7 mph - 0.03 in Rain Light Rain
9:14 AM 41.0 °F 31.6 °F 37.4 °F 87% 30.06 in 7.0 mi NNE 20.7 mph 28.8 mph 0.00 in Rain Light Rain
9:27 AM 39.2 °F 30.5 °F 37.4 °F 93% 30.08 in 3.0 mi North 16.1 mph 26.5 mph 0.01 in Rain Light Rain
9:53 AM 39.9 °F 31.4 °F 37.0 °F 89% 30.09 in 4.0 mi NNE 16.1 mph 27.6 mph 0.01 in Rain Light Rain
10:00 AM 39.2 °F 29.8 °F 37.4 °F 93% 30.06 in 4.0 mi NNE 18.4 mph - 0.00 in Rain Light Rain
10:53 AM 39.9 °F 30.8 °F 37.0 °F 89% 30.08 in 5.0 mi NNE 18.4 mph 26.5 mph 0.00 in   Overcast
11:20 AM 39.2 °F 30.2 °F 37.4 °F 93% 30.05 in 2.5 mi North 17.3 mph 25.3 mph 0.01 in Rain Light Rain
11:32 AM 37.4 °F 26.6 °F 35.6 °F 93% 30.04 in 1.5 mi NNE 21.9 mph 27.6 mph 0.01 in Snow Light Snow
11:53 AM 39.0 °F 29.6 °F 36.0 °F 89% 30.04 in 1.2 mi NNE 18.4 mph 26.5 mph 0.02 in   Overcast
12:13 PM 37.4 °F 27.5 °F 35.6 °F 93% 30.01 in 2.5 mi NNE 18.4 mph 24.2 mph 0.00 in Rain Light Rain
12:22 PM 37.4 °F 27.5 °F 35.6 °F 93% 30.00 in 1.2 mi NNE 18.4 mph 28.8 mph 0.06 in Rain , Thunderstorm Heavy Thunderstorms and Rain
12:41 PM 37.4 °F 27.2 °F 35.6 °F 93% 30.00 in 2.0 mi North 19.6 mph 24.2 mph 0.12 in Snow Light Snow
12:53 PM 37.9 °F 28.5 °F 36.0 °F 93% 30.01 in 1.8 mi NNE 17.3 mph 25.3 mph 0.13 in Snow Light Snow
1:06 PM 37.4 °F 27.8 °F 35.6 °F 93% 29.98 in 3.0 mi North 17.3 mph 26.5 mph 0.00 in Snow Light Snow
1:15 PM 37.4 °F 27.8 °F 35.6 °F 93% 29.97 in 2.5 mi NNE 17.3 mph 24.2 mph 0.01 in Rain Light Rain
1:25 PM 37.4 °F 27.5 °F 35.6 °F 93% 29.97 in 3.0 mi NNE 18.4 mph - 0.02 in Rain Light Rain
1:33 PM 37.4 °F 28.2 °F 35.6 °F 93% 29.97 in 2.0 mi NNE 16.1 mph 26.5 mph 0.03 in Snow Light Snow
1:45 PM 37.4 °F 27.8 °F 35.6 °F 93% 29.98 in 3.0 mi North 17.3 mph 28.8 mph 0.03 in Snow Light Snow
1:53 PM 37.9 °F 28.2 °F 35.1 °F 89% 30.01 in 4.0 mi North 18.4 mph 27.6 mph 0.03 in Rain Light Rain
2:08 PM 37.4 °F 27.5 °F 35.6 °F 93% 29.97 in 1.8 mi NNE 18.4 mph 27.6 mph 0.00 in Snow Light Snow
2:27 PM 37.4 °F 26.1 °F 35.6 °F 93% 29.99 in 2.0 mi North 24.2 mph 28.8 mph 0.01 in Snow Light Snow
2:38 PM 37.4 °F 27.2 °F 35.6 °F 93% 29.98 in 3.0 mi North 19.6 mph 29.9 mph 0.01 in   Overcast
2:48 PM 37.4 °F 26.9 °F 35.6 °F 93% 29.98 in 3.0 mi North 20.7 mph 26.5 mph 0.01 in Rain Light Rain
2:53 PM 37.0 °F 26.7 °F 35.1 °F 93% 30.00 in 2.5 mi North 19.6 mph 26.5 mph 0.01 in Rain Light Rain
3:22 PM 35.6 °F 24.2 °F 33.8 °F 93% 29.97 in 4.0 mi North 21.9 mph 29.9 mph 0.00 in Rain Light Freezing Rain
3:41 PM 35.6 °F 25.2 °F 33.8 °F 93% 30.00 in 2.5 mi North 18.4 mph 24.2 mph 0.00 in Snow Light Snow
3:53 PM 36.0 °F 25.6 °F 34.0 °F 93% 30.03 in 1.8 mi North 18.4 mph 25.3 mph 0.00 in Snow Light Snow
4:26 PM 35.6 °F 24.2 °F 33.8 °F 93% 30.00 in 3.0 mi North 21.9 mph - 0.02 in Snow Light Snow
4:34 PM 35.6 °F 24.8 °F 33.8 °F 93% 30.01 in 6.0 mi NNE 19.6 mph 27.6 mph 0.02 in Rain Light Freezing Rain
4:53 PM 35.1 °F 24.5 °F 32.0 °F 89% 30.02 in 3.0 mi North 18.4 mph 29.9 mph 0.03 in Rain Light Freezing Rain
5:22 PM 35.6 °F 24.5 °F 32.0 °F 87% 30.02 in 2.5 mi North 20.7 mph 29.9 mph 0.06 in Rain Light Freezing Rain
5:30 PM 35.6 °F 23.7 °F 32.0 °F 87% 29.99 in 1.5 mi North 24.2 mph 34.5 mph 0.11 in Rain Light Freezing Rain
5:34 PM 33.8 °F 21.9 °F 32.0 °F 93% 29.99 in 2.5 mi North 21.9 mph 34.5 mph 0.13 in Rain Rain
5:39 PM 35.6 °F 25.2 °F 32.0 °F 87% 30.02 in 2.5 mi North 18.4 mph 34.5 mph 0.14 in Rain Light Freezing Rain
5:43 PM 35.6 °F 24.2 °F 32.0 °F 87% 30.02 in 3.0 mi North 21.9 mph 27.6 mph 0.15 in Rain Light Freezing Rain
5:51 PM 35.6 °F 24.2 °F 32.0 °F 87% 30.02 in 5.0 mi North 21.9 mph 29.9 mph 0.15 in Rain Light Freezing Rain
5:53 PM 34.0 °F 22.7 °F 32.0 °F 92% 30.05 in 5.0 mi North 19.6 mph 29.9 mph 0.17 in Rain Light Freezing Rain
6:07 PM 33.8 °F 21.6 °F 32.0 °F 93% 30.01 in 4.0 mi North 23.0 mph 28.8 mph 0.04 in Rain Rain
6:14 PM 33.8 °F 23.5 °F 32.0 °F 93% 30.05 in 3.0 mi NNE 16.1 mph 27.6 mph 0.06 in Rain Light Freezing Rain
6:22 PM 33.8 °F 21.9 °F 32.0 °F 93% 29.99 in 3.0 mi NNE 21.9 mph 29.9 mph 0.10 in Rain Light Freezing Rain
6:26 PM 33.8 °F 21.6 °F 32.0 °F 93% 29.98 in 3.0 mi NE 23.0 mph 29.9 mph 0.12 in Rain Light Freezing Rain
6:35 PM 33.8 °F 22.2 °F 32.0 °F 93% 29.96 in 3.0 mi NE 20.7 mph 28.8 mph 0.16 in Rain Light Freezing Rain
6:53 PM 34.0 °F 23.0 °F 32.0 °F 92% 30.04 in 3.0 mi NNE 18.4 mph 25.3 mph 0.23 in Rain Light Freezing Rain
7:05 PM 35.6 °F 26.2 °F 32.0 °F 87% 30.03 in 2.5 mi NNE 15.0 mph 25.3 mph 0.03 in Rain Light Freezing Rain
7:12 PM 35.6 °F 27.1 °F 32.0 °F 87% 30.05 in 3.0 mi North 12.7 mph 21.9 mph 0.05 in Rain Heavy Rain
7:16 PM 35.6 °F 28.0 °F 32.0 °F 87% 30.07 in 3.0 mi North 10.4 mph 21.9 mph 0.06 in Rain Light Freezing Rain
7:26 PM 35.6 °F 26.6 °F 33.8 °F 93% 30.05 in 3.0 mi North 13.8 mph - 0.10 in Rain Light Freezing Rain
7:36 PM 35.6 °F 23.2 °F 32.0 °F 87% 29.98 in 2.5 mi North 26.5 mph 32.2 mph 0.15 in Rain Light Freezing Rain
7:44 PM 35.6 °F 25.9 °F 32.0 °F 87% 30.04 in 4.0 mi North 16.1 mph 32.2 mph 0.16 in Rain Rain
7:51 PM 35.6 °F 28.6 °F 33.8 °F 93% 30.08 in 5.0 mi NNW 9.2 mph 25.3 mph 0.17 in Rain Light Freezing Rain
7:53 PM 35.1 °F 27.9 °F 33.1 °F 92% 30.12 in 5.0 mi NNW 9.2 mph - 0.17 in Rain Light Freezing Rain
7:55 PM 35.6 °F 29.2 °F 33.8 °F 93% 30.09 in 6.0 mi NNW 8.1 mph - 0.00 in Rain Light Freezing Rain
8:10 PM 35.6 °F 27.5 °F 33.8 °F 93% 30.08 in 4.0 mi North 11.5 mph - 0.03 in Rain Light Freezing Rain
8:29 PM 35.6 °F 25.5 °F 33.8 °F 93% 30.08 in 4.0 mi NNW 17.3 mph 24.2 mph 0.08 in Rain Light Freezing Rain
8:49 PM 35.6 °F 26.6 °F 32.0 °F 87% 30.08 in 5.0 mi North 13.8 mph - 0.13 in Rain Light Rain
8:53 PM 35.1 °F 24.8 °F 32.0 °F 89% 30.12 in 5.0 mi North 17.3 mph 23.0 mph 0.14 in Rain Rain
9:00 PM 35.6 °F 25.2 °F 32.0 °F 87% 30.06 in 5.0 mi North 18.4 mph - 0.00 in Rain Light Freezing Rain
9:02 PM 35.6 °F 24.5 °F 32.0 °F 87% 30.06 in 5.0 mi North 20.7 mph - 0.00 in Rain Light Freezing Rain
9:17 PM 35.6 °F 25.5 °F 32.0 °F 87% 30.09 in 7.0 mi North 17.3 mph - 0.01 in Rain Light Freezing Rain
9:28 PM 33.8 °F 22.5 °F 32.0 °F 93% 30.05 in 5.0 mi North 19.6 mph 26.5 mph 0.02 in Rain Light Freezing Rain
9:41 PM 35.6 °F 25.2 °F 32.0 °F 87% 30.05 in 5.0 mi North 18.4 mph 27.6 mph 0.05 in Rain Light Freezing Rain
9:48 PM 35.6 °F 24.8 °F 32.0 °F 87% 30.05 in 6.0 mi North 19.6 mph 28.8 mph 0.05 in Rain Light Freezing Rain
9:53 PM 35.1 °F 23.8 °F 32.0 °F 89% 30.10 in 5.0 mi North 20.7 mph 27.6 mph 0.06 in Rain Light Freezing Rain
9:57 PM 35.6 °F 25.9 °F 32.0 °F 87% 30.09 in 5.0 mi North 16.1 mph 27.6 mph 0.01 in Rain Rain
10:02 PM 35.6 °F 25.2 °F 32.0 °F 87% 30.08 in 4.0 mi North 18.4 mph 25.3 mph 0.03 in Rain Light Freezing Rain
10:43 PM 33.8 °F 22.8 °F 32.0 °F 93% 30.08 in 6.0 mi North 18.4 mph 27.6 mph 0.14 in Rain Light Freezing Rain
10:53 PM 34.0 °F 21.8 °F 30.9 °F 89% 30.12 in 9.0 mi North 23.0 mph 29.9 mph 0.14 in Rain Light Freezing Rain
11:05 PM 35.6 °F 25.2 °F 32.0 °F 87% 30.12 in 10.0 mi North 18.4 mph 26.5 mph 0.00 in   Overcast
11:53 PM 35.1 °F 25.2 °F 30.9 °F 85% 30.16 in 8.0 mi North 16.1 mph - 0.00 in Rain Light Rain